This is the latest recevied weather packets stored in our database for station/object K4KMJ. If no packets are shown the sender has not sent any weather packets the latest 10 day(s).
| Time | Temp. | Humidity | Pressure | Rain* | Wind** | Luminosity | Snow |
|---|---|---|---|---|---|---|---|
| 1777852463 | 21.67° C | 77% | 1018.5 hPa | 0 mm | - | 6 W/m² | - |
| 1777852160 | 21.67° C | 76% | 1018.2 hPa | 0 mm | - | 11 W/m² | - |
| 1777851857 | 21.67° C | 76% | 1018.5 hPa | 0 mm | - | 15 W/m² | - |
| 1777851555 | 22.22° C | 76% | 1018.4 hPa | 0 mm | - | 19 W/m² | - |
| 1777851251 | 22.22° C | 76% | 1018.4 hPa | 0 mm | - | 28 W/m² | - |
| 1777850948 | 22.22° C | 76% | 1018.3 hPa | 0 mm | - | 32 W/m² | - |
| 1777850645 | 22.22° C | 75% | 1018.3 hPa | 0 mm | - | 40 W/m² | - |
| 1777850343 | 22.22° C | 76% | 1018.1 hPa | 0 mm | - | 60 W/m² | - |
| 1777850040 | 22.22° C | 76% | 1018.3 hPa | 0 mm | - | 69 W/m² | - |
| 1777849736 | 22.22° C | 75% | 1018.3 hPa | 0 mm | - | 59 W/m² | - |
| 1777849432 | 22.22° C | 75% | 1018.4 hPa | 0 mm | - | 50 W/m² | - |
| 1777849130 | 22.22° C | 75% | 1018.4 hPa | 0 mm | - | 47 W/m² | - |
| 1777848826 | 22.22° C | 75% | 1018.5 hPa | 0 mm | - | 46 W/m² | - |
| 1777848523 | 22.22° C | 75% | 1018.5 hPa | 0 mm | - | 44 W/m² | - |
| 1777848220 | 22.22° C | 75% | 1018.4 hPa | 0 mm | - | 57 W/m² | - |
| 1777847918 | 22.22° C | 75% | 1018.3 hPa | 0 mm | - | 81 W/m² | - |
| 1777847615 | 22.78° C | 75% | 1018.4 hPa | 0 mm | - | 83 W/m² | - |
| 1777847311 | 22.78° C | 74% | 1018.3 hPa | 0 mm | - | 104 W/m² | - |
| 1777847009 | 22.78° C | 74% | 1018.4 hPa | 0 mm | - | 104 W/m² | - |
| 1777846707 | 22.78° C | 74% | 1018.2 hPa | 0 mm | - | 114 W/m² | - |
| 1777846405 | 22.78° C | 74% | 1018.1 hPa | 0 mm | - | 135 W/m² | - |
| 1777846095 | 22.78° C | 74% | 1018.1 hPa | 0 mm | - | 144 W/m² | - |
| 1777845792 | 22.78° C | 73% | 1018.4 hPa | 0 mm | - | 126 W/m² | - |
| 1777845489 | 22.78° C | 73% | 1018.3 hPa | 0 mm | - | 102 W/m² | - |
| 1777845186 | 23.33° C | 73% | 1018.3 hPa | 0 mm | - | 182 W/m² | - |
* Rain latest hour (hover to see other rain measurements)
** Current wind speed in m/s (hover to see current wind gust speed)